Terminal Aerodrome Forecast
Issued by NWS

Home | Current Version | Previous Version | Graphics & Text | Print | Product List | Glossary On
Versions: 1 2 3 4 5 6 7 8 9 10 11 12 13 14 15 16 17 18 19 20 21 22 23 24 25 26 27 28 29 30 31 32 33 34 35 36 37
000
FTUS43 KLOT 200300 AAA
TAFMDW
TAF AMD
KMDW 200301Z 2003/2024 18012G18KT P6SM SCT250
     FM201400 23013G22KT P6SM SCT040 BKN120 PROB30 2018/2022 5SM
      -TSRA SCT015 BKN040CB=

USA.gov is the U.S. government's official web portal to all federal, state and local government web resources and services.